Location: Newark
(30.0333°N, 31.2167°E)
Time: 19:30:16
(UTC+00:00)

OTV 5 (USA 277) - Visible Passes

Search period start: 20 October 2019 00:00
Search period end: 30 October 2019 00:00
Orbit: 310 x 324 km, 54.5° (Epoch: 17 October)

Date Brightness Start Highest point End Pass type
(mag) Time Alt. Az. Time Alt. Az. Time Alt. Az.
20 Oct ? 03:35:46 10° NNW 03:38:28 59° NE 03:41:07 10° SE visible
21 Oct ? 02:17:56 10° NNE 02:18:32 11° NE 02:19:10 10° NE visible
22 Oct ? 02:32:49 27° NNE 02:33:16 29° NE 02:35:42 10° ESE visible
23 Oct ? 02:47:48 63° SW 02:47:48 63° SW 02:50:29 10° SSE visible
24 Oct ? 03:02:55 15° SW 03:02:55 15° SW 03:03:58 10° SSW visible
25 Oct ? 16:21:32 10° S 16:23:24 26° SSE 16:23:24 26° SSE visible
26 Oct ? 16:35:43 10° SW 16:38:20 61° WNW 16:38:20 61° WNW visible
27 Oct ? 16:51:05 10° W 16:53:00 17° NW 16:53:07 17° NW visible
29 Oct ? 15:45:20 10° WSW 15:47:46 30° NW 15:50:14 10° NNE visible
